Girona, Spain

5:02 AM CET on November 22, 2017 (GMT +0100)
Girona

Weather History for LEGE - January, 2013

Change the Weather History Date:

Wednesday, January 23, 2013

  Actual Average Record
Temperature  
Mean Temperature 42 °F -  
Max Temperature 51 °F 57 °F 68 °F (2016)
Min Temperature 32 °F 35 °F 21 °F (2011)
Degree Days  
Heating Degree Days 24    
Moisture  
Dew Point 33 °F    
Average Humidity 73    
Maximum Humidity 100    
Minimum Humidity 50    
Precipitation  
Precipitation 0.00 in 0.07 in - ()
Sea Level Pressure  
Sea Level Pressure 29.58 in    
Wind  
Wind Speed 3 mph ()    
Max Wind Speed 9 mph    
Max Gust Speed 22 mph    
Visibility 6.5 miles    
Events      
Averages and records for this station are not official NWS values.
T = Trace of Precipitation, MM = Missing Value Source: Averaged Metar Reports

Daily Weather History Graph

Daily Weather History Graph

Search for Another Location

Airport or City:

Trip Planner

Search our weather history database for the weather conditions in past years. The results will help you decide how hot, cold, wet, or windy it might be!

Date:

Astronomy

Jan. 23, 2013 Rise Set
Actual Time 8:09 AM CET 5:52 PM CET
Civil Twilight 7:39 AM CET 6:22 PM CET
Nautical Twilight 7:05 AM CET 6:56 PM CET
Astronomical Twilight 6:32 AM CET 7:29 PM CET
Moon 2:49 PM CET (1/23) 5:09 AM CET (1/23)
Length of Visible Light 10h 43m
Length of Day
9h 43m
Waxing Gibbous, 87% of the Moon is Illuminated
Jan 23
Waxing Gibbous
Jan 27
Full
Feb 3
Last Quarter
Feb 10
New
Feb 17
First Quarter

Hourly Weather History & Observations

Time (CET) Temp. Windchill Dew Point Humidity Pressure Visibility Wind Dir Wind Speed Gust Speed Precip Events Conditions
12:00 AM 42.8 °F 38.0 °F 32.0 °F 66% 29.50 in 6.2 mi NNE 8.1 mph - N/A   Mostly Cloudy
12:30 AM 42.8 °F 38.0 °F 32.0 °F 66% 29.50 in 6.2 mi North 8.1 mph - N/A   Mostly Cloudy
1:00 AM 45 °F - 34 °F 54% 29.49 in - North 5.8 mph - -  
1:00 AM 42.8 °F 38.6 °F 32.0 °F 66% 29.47 in 6.2 mi North 6.9 mph - N/A   Mostly Cloudy
1:30 AM 42.8 °F - 32.0 °F 66% 29.47 in 6.2 mi Variable 2.3 mph - N/A   Mostly Cloudy
2:00 AM 42.8 °F - 32.0 °F 66% 29.47 in 6.2 mi Variable 2.3 mph - N/A   Mostly Cloudy
2:30 AM 41.0 °F - 32.0 °F 70% 29.47 in 6.2 mi Variable 1.2 mph - N/A   Mostly Cloudy
3:00 AM 41.0 °F - 32.0 °F 70% 29.47 in 6.2 mi WNW 1.2 mph - N/A   Mostly Cloudy
3:30 AM 44.6 °F 41.4 °F 32.0 °F 61% 29.47 in 6.2 mi NW 5.8 mph - N/A   Mostly Cloudy
4:00 AM 44.6 °F 41.4 °F 28.4 °F 53% 29.47 in 6.2 mi NW 5.8 mph - N/A   Mostly Cloudy
4:30 AM 46.4 °F 41.9 °F 30.2 °F 53% 29.47 in 6.2 mi NW 9.2 mph 21.9 mph N/A   Mostly Cloudy
5:00 AM 44.6 °F 42.2 °F 30.2 °F 57% 29.50 in 6.2 mi WNW 4.6 mph - N/A   Mostly Cloudy
5:30 AM 42.8 °F 40.1 °F 32.0 °F 66% 29.50 in 6.2 mi WNW 4.6 mph - N/A   Mostly Cloudy
6:00 AM 42.8 °F - 32.0 °F 66% 29.50 in 6.2 mi Variable 2.3 mph - N/A   Mostly Cloudy
6:30 AM 41.0 °F - 32.0 °F 70% 29.50 in 6.2 mi Variable 2.3 mph - N/A   Mostly Cloudy
7:00 AM 42 °F - 34 °F 64% 29.52 in - SSW 5.8 mph - -  
7:00 AM 39.2 °F 37.0 °F 33.8 °F 81% 29.50 in 6.2 mi SSW 3.5 mph - N/A   Scattered Clouds
7:30 AM 41.0 °F 39.0 °F 32.0 °F 70% 29.50 in 6.2 mi SSW 3.5 mph - N/A   Scattered Clouds
8:00 AM 39.2 °F - 33.8 °F 81% 29.53 in 6.2 mi SSE 2.3 mph - N/A   Scattered Clouds
8:30 AM 39.2 °F - 33.8 °F 81% 29.53 in 6.2 mi Variable 1.2 mph - N/A   Scattered Clouds
9:00 AM 39.2 °F - 33.8 °F 81% 29.53 in 6.2 mi Variable 1.2 mph - N/A   Scattered Clouds
9:30 AM 39.2 °F - 33.8 °F 81% 29.53 in 6.2 mi Variable 1.2 mph - N/A   Scattered Clouds
10:00 AM 39.2 °F - 33.8 °F 81% 29.56 in 6.2 mi Variable 2.3 mph - N/A   Scattered Clouds
10:30 AM 39.2 °F - 35.6 °F 87% 29.56 in 6.2 mi Calm Calm - N/A   Scattered Clouds
11:00 AM 41.0 °F - 35.6 °F 81% 29.59 in 6.2 mi Calm Calm - N/A   Scattered Clouds
11:30 AM 41.0 °F - 35.6 °F 81% 29.59 in 6.2 mi Calm Calm - N/A   Scattered Clouds
12:00 PM 42.8 °F - 35.6 °F 76% 29.59 in 6.2 mi Variable 1.2 mph - N/A   Partly Cloudy
12:30 PM 42.8 °F - 35.6 °F 76% 29.59 in 6.2 mi Calm Calm - N/A   Partly Cloudy
1:00 PM 46 °F - 37 °F 63% 29.60 in 22 mi SE 2.3 mph - -   Scattered Clouds
1:00 PM 42.8 °F - 35.6 °F 76% 29.59 in 6.2 mi Variable 2.3 mph - N/A   Partly Cloudy
2:00 PM 44.6 °F - 33.8 °F 66% 29.59 in 6.2 mi Calm Calm - N/A   Partly Cloudy
2:30 PM 44.6 °F - 35.6 °F 71% 29.59 in 6.2 mi East 2.3 mph - N/A   Partly Cloudy
3:00 PM 44.6 °F - 33.8 °F 66% 29.62 in 6.2 mi Variable 2.3 mph - N/A   Partly Cloudy
3:30 PM 46.4 °F - 33.8 °F 62% 29.62 in 6.2 mi Variable 1.2 mph - N/A   Partly Cloudy
4:00 PM 46.4 °F - 33.8 °F 62% 29.65 in 6.2 mi Variable 1.2 mph - N/A   Partly Cloudy
4:30 PM 48.2 °F - 32.0 °F 54% 29.65 in 6.2 mi Calm Calm - N/A   Partly Cloudy
5:00 PM 48.2 °F - 30.2 °F 50% 29.65 in 6.2 mi South 2.3 mph - N/A   Partly Cloudy
5:30 PM 46.4 °F - 33.8 °F 62% 29.65 in 6.2 mi Variable 1.2 mph - N/A   Partly Cloudy
6:00 PM 42.8 °F - 33.8 °F 70% 29.68 in 6.2 mi Calm Calm - N/A   Partly Cloudy
6:30 PM 39.2 °F - 33.8 °F 81% 29.68 in 6.2 mi NE 2.3 mph - N/A   Partly Cloudy
7:00 PM 42 °F - 34 °F 65% 29.70 in 19 mi Calm Calm - -   Scattered Clouds
7:00 PM 39.2 °F - 32.0 °F 75% 29.68 in 6.2 mi Calm Calm - N/A   Partly Cloudy
7:30 PM 39.2 °F - 33.8 °F 81% 29.71 in - Calm Calm - N/A   Clear
8:00 PM 35.6 °F - 32.0 °F 87% 29.71 in - Variable 1.2 mph - N/A   Clear
8:30 PM 35.6 °F - 32.0 °F 87% 29.71 in - Calm Calm - N/A   Clear
9:00 PM 33.8 °F - 32.0 °F 93% 29.71 in - Calm Calm - N/A   Clear
9:30 PM 33.8 °F - 33.8 °F 100% 29.71 in - Calm Calm - N/A   Clear
10:00 PM 33.8 °F - 32.0 °F 93% 29.71 in - Calm Calm - N/A   Clear
10:30 PM 32.0 °F - 32.0 °F 100% 29.71 in - Variable 1.2 mph - N/A   Clear
11:00 PM 32.0 °F - 32.0 °F 100% 29.71 in - Calm Calm - N/A   Clear
11:30 PM 32.0 °F - 32.0 °F 100% 29.71 in - Variable 2.3 mph - N/A   Clear